AirNav   TITAN Aviation Fuels
 
 1143 users online  

N13 Bloomsburg Municipal Airport
Bloomsburg, Pennsylvania, USA

GOING TO BLOOMSBURG?


FAA INFORMATION EFFECTIVE 04 NOVEMBER 2021

Location

FAA Identifier: N13
Lat/Long: 40-59-51.5420N 076-26-06.8869W
40-59.859033N 076-26.114782W
40.9976506,-76.4352464
(estimated)
Elevation: 481.3 ft. / 146.7 m (surveyed)
Variation: 12W (2015)
Time zone: UTC -4 (UTC -5 during Standard Time)
Zip code: 17815

Airport Operations

Airport use: Open to the public
Control tower: no
ARTCC: NEW YORK CENTER
FSS: WILLIAMSPORT FLIGHT SERVICE STATION
NOTAMs facility: IPT (NOTAM-D service available)
Attendance: MON-FRI 0830-1630, ALL SAT-SUN IRREGULAR
FOR SVC AFT HRS CALL 570-317-1966.
Wind indicator: yes
Segmented circle: no
Lights: ACTVT MIRL RWY 09/27- CTAF.
Beacon: white-green (lighted land airport)
Operates sunset to sunrise.

Airport Communications

CTAF/UNICOM: 122.8
WILKES-BARRE APPROACH: 126.3
WILKES-BARRE DEPARTURE: 126.3
WX AWOS-3 at 79PN (8 nm W): 118.075 (570-271-8192)
WX AWOS-3 at N79 (11 nm SW): 119.175 (570-672-0389)
WX AWOS-3 at ZER (18 nm S): 127.575 (570-544-2778)
WX AWOS-3 at HZL (20 nm E): 119.975 (570-459-4901)

Nearby radio navigation aids

VOR radial/distance  VOR name  Freq  Var
MIPr107/10.5MILTON VORTAC109.2009W
SEGr067/23.8SELINSGROVE VOR/DME110.4008W
FQMr152/25.6WILLIAMSPORT VOR/DME114.4009W
RAVr027/27.7RAVINE VORTAC114.6011W
LVZr254/37.5WILKES-BARRE VORTAC111.6010W

 
NDB name  Hdg/Dist  Freq  Var  ID
BELLGROVE019/34.132810WBZJ -... --.. .---

Airport Services

Fuel available: 100LL
Parking: tiedowns
Airframe service: MAJOR
Powerplant service: MAJOR
Bottled oxygen: NONE
Bulk oxygen: NONE

Runway Information

Runway 9/27

Dimensions: 3200 x 60 ft. / 975 x 18 m
Surface: asphalt, in good condition
Weight bearing capacity: 
Single wheel: 12.5
Runway edge lights: medium intensity
RUNWAY 9  RUNWAY 27
Latitude: 40-59.798613N40-59.919452N
Longitude: 076-26.453282W076-25.776280W
Elevation: 481.2 ft.481.2 ft.
Traffic pattern: leftleft
Runway heading: 089 magnetic, 077 true269 magnetic, 257 true
Markings: basic, in fair conditionbasic, in fair condition
Touchdown point: yes, no lightsyes, no lights
Obstructions: 12 ft. road, 387 ft. from runway, 125 ft. both sides of centerline, 15:1 slope to clearnone

Airport Ownership and Management from official FAA records

Ownership: Publicly-owned
Owner: TOWN OF BLOOMSBURG
BLOOMSBURG TOWN HALL, 301 E 2ND ST
BLOOMSBURG, PA 17815-9588
Phone (570) 784-7123
Manager: BJ TEICHMAN
301 AIRPORT ROAD
BLOOMSBURG, PA 17815-9588
Phone (570) 317-2481

Airport Operational Statistics

Aircraft based on the field: 25
Single engine airplanes: 21
Multi engine airplanes: 2
Jet airplanes: 1
Helicopters: 1
    
Aircraft operations: avg 29/day *
71% local general aviation
28% transient general aviation
<1% military
<1% air taxi
* for 12-month period ending 18 August 2021

Additional Remarks

DEER AND GEESE INVOF RWY. AFT DUSK, RWY 9 PREF DUE TO DEER ACT EAST END OF ARPT
FOR CD CTC WILKES-BARRE APCH AT 570-655-2084.

Instrument Procedures

NOTE: All procedures below are presented as PDF files. If you need a reader for these files, you should download the free Adobe Reader.

NOT FOR NAVIGATION. Please procure official charts for flight.
FAA instrument procedures published for use from 04 November 2021 at 0901Z to 02 December 2021 at 0900z.

 
IAPs - Instrument Approach Procedures
RNAV (GPS)-B   download (185KB)
VOR-A   download (190KB)
NOTE: Special Take-Off Minimums/Departure Procedures apply   download (212KB)

Other nearby airports with instrument procedures:

8N8 - Danville Airport (10 nm W)
N79 - Northumberland County Airport (11 nm SW)
KZER - Schuylkill County/Joe Zerbey Airport (18 nm S)
KHZL - Hazleton Regional Airport (20 nm E)
KSEG - Penn Valley Airport (22 nm SW)
 
Loc | Ops | Rwys | IFR | FBO | Links
Com | Nav | Svcs | Stats | Notes
Area around N13 (Bloomsburg Municipal Airport)
 
Road maps at: MapQuest Bing Google
 
Aerial photo
WARNING: Photo may not be current or correct
Aerial photo of N13 (Bloomsburg Municipal Airport)
Photo by BJ Teichman, Airport Coordinator
Taken early September 2020
looking west.

Do you have a better or more recent aerial photo of Bloomsburg Municipal Airport that you would like to share? If so, please send us your photo.

 
Sectional chart

 
Airport distance calculator
Flying to Bloomsburg Municipal Airport? Find the distance to fly.

From to N13

Sunrise and sunset
Times for 27-Nov-2021
 Local
(UTC-5)
 Zulu
(UTC)
Morning civil twilight06:3811:38
Sunrise07:0812:08
Sunset16:3921:39
Evening civil twilight17:0922:09

Current date and time
Zulu (UTC)  28-Nov-2021 00:48:26
Local (UTC-5)  27-Nov-2021 19:48:26
 
METAR
KHZL 
20nm E 
280035Z AUTO 00000KT 10SM CLR M01/M08 A2991 RMK AO2
KSEG 
22nm SW 
272353Z AUTO 00000KT 10SM BKN100 M02/M06 A2996 RMK AO2 SLP150 T10171061 10033 21022 50003 FZRANO $
KIPT 
27nm NW 
272354Z 00000KT 10SM SCT120 M01/M07 A2994 RMK AO2 SLP143 T10061072 10033 21011 50003
K22N 
33nm E 
280035Z AUTO 00000KT 10SM CLR M02/M06 A2995 RMK AO2
KMUI 
35nm S 
272356Z AUTO 00000KT 10SM CLR M01/M08 A2996 RMK AO2 SLP153 T10091084 10041 21020 50001
KAVP 
38nm NE 
272354Z 34004KT 10SM CLR M02/M08 A2991 RMK AO2 SLP137 T10221083 10017 21022 50005
TAF
KIPT 
27nm NW 
272133Z 2722/2818 31006KT P6SM BKN250 FM280300 29004KT 5SM -SN BR OVC035 FM280400 VRB03KT 1 1/2SM -SN BR OVC012 FM281600 23006KT P6SM BKN035
NOTAMs
Click for the latest NOTAMs
NOTAMs are issued by the DoD/FAA and will open in a separate window not controlled by AirNav.

 

 
 

FBO, Fuel Providers, and Aircraft Ground Support

  
 Business Name 
 
 Contact 
 
 Services / Description 
 
Fuel Prices
 
Comments
  
 Town of Bloomsburg
570-317-2481
570-317-1966
[web site]
[email]
Airport management, Aviation fuel, Aircraft parking (ramp or tiedown), Hangars

More info about Town of Bloomsburg
Phillips 66
100LL
AS $4.92 
 Updated 15-Nov-2021
 
   7 read write
AS=Assisted/Self Service
Update Fuel Prices
 

Would you like to see your business listed on this page?

 If your business provides an interesting product or service to pilots, flight crews, aircraft, or users of the Bloomsburg Municipal Airport, you should consider listing it here.  To start the listing process, click on the button below
 
Add a business
 

Other Pages about Bloomsburg Municipal Airport

bloomsburgpa.org/...
 
Update a link
 
Copyright © AirNav, LLC. All rights reserved. Privacy Policy  Contact